Theta_e
323 327 329 327 328 330 327 327 328 328 329 326 325 326 326 325 326 336 350 349 345 347 353 353 353 353 352 353 344 340 349 350 349 350 349 351 350 351 352 351 351 350 349 350 350 350 350 349 349 348 348 348 348 348 347 348 348 348 349 350 351 351 351 351 350 350 349 348 348 348 348 348 348 349 348 347 347 347 347 346 346 347 347 347 346 344
324 325 327 329 327 325 324 326 327 326 326 326 326 325 324 325 328 332 340 346 343 341 351 353 353 355 352 350 339 335 349 351 348 349 348 350 350 350 352 351 352 350 349 350 350 350 351 350 350 349 349 348 348 348 347 348 348 348 349 350 350 350 351 351 350 350 350 348 348 347 347 347 347 348 348 347 347 347 347 347 346 347 347 346 346 343
323 323 325 324 322 321 324 326 326 326 326 325 325 321 323 327 327 331 338 345 343 339 352 355 351 358 357 351 341 335 346 350 347 350 348 349 349 348 350 350 351 351 350 350 349 350 351 351 350 349 349 348 348 348 347 348 348 348 349 349 350 350 351 350 350 350 350 349 348 348 348 348 348 348 348 348 348 348 348 348 347 347 347 346 345 344
320 323 323 319 319 323 325 326 326 324 322 323 323 319 324 326 322 327 332 341 342 337 347 352 349 365 365 360 353 340 341 347 346 349 349 348 348 348 348 348 349 350 350 349 348 349 350 350 350 349 349 349 348 348 348 348 347 348 348 349 349 350 350 350 350 349 350 350 349 349 350 350 350 349 349 349 348 348 348 348 348 347 346 346 345 344
321 321 318 317 322 324 322 324 324 322 321 323 323 322 325 327 322 321 325 339 347 339 345 346 341 359 366 360 362 349 341 345 345 346 348 347 348 348 347 347 348 349 349 348 348 348 348 349 350 349 349 349 348 348 348 348 347 347 348 348 349 349 350 350 350 349 350 351 350 350 351 351 351 351 350 350 348 347 348 348 348 347 347 346 346 345
323 320 317 319 323 322 321 324 323 321 322 322 323 325 326 327 325 325 330 339 340 333 339 336 326 343 362 353 354 357 351 347 345 342 344 346 346 346 346 347 347 347 347 348 347 348 348 348 349 349 349 348 348 348 348 348 348 347 348 348 349 349 350 350 350 349 350 351 351 351 351 350 350 350 349 348 348 347 347 347 348 348 347 346 346 345
324 321 321 322 323 323 323 324 324 323 321 319 323 326 326 325 325 332 337 335 331 328 332 334 327 333 352 350 346 355 358 353 348 342 341 344 344 345 345 345 346 346 346 346 346 347 347 348 349 348 349 348 348 349 349 349 348 348 348 348 349 349 350 350 350 349 350 351 351 351 351 350 349 349 348 347 348 348 347 348 349 348 348 347 346 346
323 324 325 324 325 325 324 323 324 324 320 320 324 324 325 322 321 332 338 333 332 329 330 341 339 330 337 348 347 349 354 353 353 349 343 341 342 344 344 343 343 342 344 345 345 346 346 347 347 347 348 347 348 349 350 350 349 349 348 348 349 349 350 351 350 350 350 350 351 351 351 351 350 348 348 348 348 348 348 348 349 349 348 347 346 346
322 327 326 325 325 323 324 326 324 322 321 324 324 321 323 321 322 331 332 333 333 324 323 336 336 326 336 357 354 346 349 350 354 356 347 340 341 343 342 341 341 340 342 344 344 344 344 345 346 346 347 348 348 349 350 350 350 349 349 348 349 350 350 350 351 351 350 350 351 351 352 351 349 348 348 348 348 348 347 348 348 349 349 348 346 346
323 325 324 323 324 324 328 328 323 322 323 322 321 322 325 329 335 335 331 333 328 318 322 331 329 324 336 359 354 340 347 354 354 357 346 336 339 341 340 338 338 339 341 341 341 342 342 344 345 346 347 348 349 349 349 350 350 350 350 349 349 349 347 346 347 350 350 350 351 351 351 350 349 348 348 348 349 348 347 347 348 349 349 348 346 345
322 321 324 324 323 324 326 323 319 320 321 318 321 325 326 336 346 347 348 339 320 320 330 331 331 327 330 349 356 346 352 357 351 353 348 338 336 338 338 337 337 339 340 340 340 340 341 343 345 346 348 348 349 349 350 351 351 351 350 349 349 349 348 345 344 346 349 351 352 351 351 351 349 348 348 349 349 348 347 347 347 348 348 348 346 345
325 322 326 325 322 322 321 320 317 316 318 320 330 330 321 330 336 336 347 337 317 324 333 330 332 328 325 341 357 351 350 351 348 353 353 342 337 336 336 337 338 339 339 340 340 341 342 342 343 345 347 348 349 349 350 350 351 352 351 350 350 350 348 346 344 344 347 351 352 352 352 351 350 349 349 349 349 349 348 346 347 347 348 349 347 345
330 327 327 324 323 322 320 323 321 319 323 322 334 335 322 327 327 323 331 327 319 324 327 329 331 326 331 345 349 345 344 343 341 342 345 339 335 336 337 337 338 340 340 341 341 341 342 342 343 344 345 347 349 349 351 351 351 352 352 351 351 351 349 347 345 345 347 351 352 353 352 351 350 349 349 348 349 349 348 347 346 346 347 348 347 345
330 331 331 326 325 322 319 324 321 320 324 318 324 328 323 325 321 322 330 323 317 324 325 331 331 324 333 341 338 342 340 335 333 332 335 337 336 337 337 338 339 340 341 341 341 341 341 342 342 343 345 346 347 349 350 351 352 352 353 353 352 351 350 348 347 346 348 351 353 354 353 351 350 349 348 349 349 349 349 347 346 346 347 348 347 344
325 326 330 327 327 323 321 325 322 322 325 320 323 324 321 325 318 319 330 322 318 327 328 329 327 323 329 332 332 337 335 335 336 336 337 337 337 338 336 339 339 338 340 340 341 342 342 342 342 342 344 346 346 348 349 351 353 353 354 355 353 350 349 349 349 349 350 352 353 354 354 352 351 350 348 349 350 350 349 347 347 347 347 348 347 345
321 323 329 326 324 325 323 322 321 325 324 319 323 321 317 325 326 323 326 325 325 328 327 325 326 332 337 336 337 337 336 339 338 336 340 338 337 338 337 338 338 337 339 340 341 342 342 342 342 344 345 347 348 348 350 351 352 353 354 355 354 351 350 351 352 352 353 353 354 354 352 351 351 350 349 349 350 350 349 347 347 348 348 348 348 347
320 324 332 330 327 327 324 321 320 321 323 321 320 319 318 322 331 326 321 326 328 325 325 324 328 342 343 335 343 349 346 347 346 342 339 338 339 338 337 338 338 338 339 341 342 341 343 342 341 343 345 345 348 348 350 352 352 354 355 355 355 354 353 353 353 354 354 354 354 353 351 350 350 350 349 349 349 350 349 348 347 348 349 349 348 348
322 324 332 331 330 330 323 322 324 320 323 327 320 320 321 319 328 328 321 326 327 324 329 329 330 341 340 335 344 351 345 349 358 352 340 338 340 338 338 338 337 339 339 341 342 341 341 341 339 342 343 343 346 347 349 352 353 355 355 355 356 355 355 354 354 355 355 355 354 352 350 350 351 350 349 349 349 350 350 348 347 348 348 349 348 348
324 323 331 332 330 333 330 327 330 326 325 325 321 323 321 317 323 325 321 322 322 322 330 332 332 337 340 344 347 342 345 353 357 356 350 344 340 337 338 337 336 339 339 340 343 341 341 341 340 342 342 343 344 345 347 350 352 354 355 356 357 356 356 355 355 355 355 356 353 349 350 351 352 352 351 350 350 350 350 348 348 348 348 349 348 348
327 323 327 334 331 330 335 335 330 329 329 326 324 327 326 325 325 322 320 322 323 328 331 329 328 333 342 355 355 344 352 358 353 360 359 344 338 337 337 337 337 338 339 341 342 342 341 341 342 342 342 343 344 345 347 348 350 352 353 355 356 356 356 355 355 355 354 354 351 349 351 352 353 353 353 351 350 350 350 349 348 349 349 349 348 347
334 327 324 337 340 329 331 333 328 329 329 326 328 327 326 329 327 322 323 324 326 334 336 329 327 337 350 356 354 349 354 356 351 356 354 339 336 337 336 336 338 338 338 341 342 343 342 341 343 342 342 342 343 345 346 347 349 350 350 352 353 354 355 354 353 353 352 350 349 350 352 353 353 353 353 352 351 351 350 349 349 349 349 348 349 348
333 333 327 330 333 327 330 332 328 329 328 327 328 326 324 327 328 328 325 324 327 331 335 333 328 339 352 348 349 351 349 345 339 339 342 337 334 336 337 337 338 338 339 339 341 342 342 341 342 343 342 342 343 344 345 346 348 349 350 350 349 350 350 351 351 350 349 349 349 351 352 352 352 352 352 353 352 351 351 351 350 348 347 347 348 348
334 343 336 329 329 328 329 328 324 324 328 330 327 326 328 327 331 334 326 323 327 326 331 334 328 337 349 342 342 343 336 334 332 331 335 336 336 337 337 338 338 338 338 339 341 342 341 342 342 342 343 343 343 344 344 344 346 348 350 350 349 348 348 349 350 349 349 349 350 352 353 353 352 352 352 352 352 351 352 351 349 347 347 348 348 348
335 340 334 336 349 344 331 329 330 329 331 332 328 326 327 324 328 335 331 327 327 326 330 329 327 341 348 335 332 334 331 332 332 332 334 334 337 338 337 339 340 339 339 338 339 340 340 342 342 343 344 344 345 345 343 343 344 347 349 349 348 347 348 349 350 350 350 350 352 353 353 352 351 350 350 351 351 351 352 351 348 347 349 349 348 348
329 334 335 339 345 341 332 334 335 333 332 331 327 327 329 328 327 331 334 332 329 328 330 326 328 343 345 334 334 337 335 335 334 337 339 337 339 339 338 340 340 339 340 339 338 339 339 340 341 342 343 344 346 346 344 343 343 346 348 348 348 347 347 349 350 351 351 352 353 353 352 350 348 347 347 349 350 350 352 352 348 347 349 349 349 349
331 335 340 340 333 327 331 334 331 329 331 330 330 333 338 337 330 328 331 331 328 329 331 329 332 343 346 343 343 341 340 340 340 342 344 342 342 341 340 342 341 341 341 340 340 339 339 339 340 341 343 344 346 347 346 344 343 345 347 349 350 348 347 348 349 351 352 353 354 353 351 349 347 347 347 348 350 350 352 351 347 347 348 348 349 349
344 338 345 357 346 333 342 346 336 331 328 326 334 343 346 342 335 331 330 329 332 336 338 338 337 342 349 347 343 342 343 344 342 342 344 344 344 344 344 344 344 344 344 344 344 343 342 341 340 341 342 344 346 347 348 347 344 345 347 349 351 350 349 349 350 351 352 353 352 350 349 349 347 347 348 348 349 351 352 351 348 347 349 348 348 348
351 333 337 354 346 337 351 352 337 329 326 329 339 347 347 344 343 336 326 325 332 334 336 341 343 346 350 346 343 343 343 342 341 340 342 343 343 344 345 345 345 345 345 346 347 346 345 344 342 342 341 342 344 345 347 347 346 345 346 347 349 348 348 349 350 351 352 351 350 349 348 347 347 347 347 347 348 349 351 351 349 348 349 349 348 347
346 332 328 333 331 332 341 338 330 326 329 337 345 346 345 349 354 349 337 333 334 331 332 342 348 350 348 344 343 341 340 340 339 338 340 341 341 342 342 343 343 343 344 345 346 347 347 347 346 346 344 342 342 342 343 344 344 344 345 346 345 342 340 341 344 348 350 349 349 349 349 348 347 347 347 347 347 347 348 349 348 347 346 348 348 347
331 333 332 326 324 327 326 326 329 331 335 342 345 344 344 346 349 349 346 345 342 338 340 344 346 347 344 342 342 339 337 339 337 338 339 339 339 340 340 341 342 342 344 344 343 343 343 344 345 346 346 345 343 342 342 343 345 345 344 344 342 337 333 333 337 343 348 349 348 348 349 349 349 348 348 348 348 348 348 348 348 347 345 346 347 347
318 327 336 330 321 324 325 327 333 340 345 346 345 344 345 344 345 347 348 350 347 344 345 346 347 347 343 340 340 338 337 338 337 337 338 337 338 338 338 338 338 341 344 343 341 341 339 339 340 342 344 346 345 344 344 345 347 347 345 342 339 337 335 335 340 345 348 351 352 350 349 349 350 350 349 348 349 349 349 348 347 347 346 346 346 347
321 323 332 328 318 322 325 324 331 341 344 347 347 344 344 346 346 344 343 344 344 345 348 349 348 348 343 338 338 337 337 336 336 336 336 335 336 336 334 335 334 338 343 343 341 340 338 336 337 338 341 344 346 346 345 346 346 347 346 343 337 336 337 340 345 348 348 351 355 353 350 347 349 351 351 350 350 349 349 349 348 348 348 347 346 347
327 324 326 323 318 323 327 327 337 339 330 337 347 346 343 345 343 341 342 341 340 344 351 351 347 343 339 337 340 340 338 337 336 335 335 335 334 332 332 332 332 334 340 343 342 340 338 336 335 336 338 341 344 345 345 345 341 339 342 343 340 338 341 346 348 345 343 347 351 352 350 348 348 350 351 351 351 351 350 349 349 349 349 348 347 348
329 328 327 325 320 323 332 337 339 332 324 334 346 346 344 344 341 342 343 340 339 342 344 343 340 337 336 338 342 341 337 337 336 332 330 332 332 330 329 330 331 332 336 341 341 340 338 335 334 336 338 340 341 343 344 345 340 336 336 337 338 340 345 350 348 341 338 341 345 349 350 349 349 350 350 350 350 351 351 350 350 349 349 349 348 348
333 330 327 327 322 322 335 340 329 324 332 341 344 342 340 338 339 341 340 338 340 341 340 338 337 334 333 335 337 337 335 336 336 331 328 329 330 330 331 331 331 330 332 334 335 335 335 335 334 335 337 339 340 341 344 345 343 339 336 334 333 337 344 350 351 347 340 337 339 344 346 347 348 348 347 347 347 348 348 348 349 349 349 349 348 347
332 332 326 324 321 318 325 328 321 323 333 338 336 336 336 335 336 339 339 339 339 339 340 338 334 330 330 332 334 337 335 336 336 334 330 329 330 331 332 331 330 329 330 330 330 330 331 333 334 335 336 338 339 340 343 345 344 342 340 335 332 334 339 346 350 353 350 344 343 346 347 347 346 344 343 343 344 344 345 345 347 347 348 349 348 348
325 332 326 319 320 324 327 326 324 327 332 334 335 333 331 331 331 335 341 340 335 335 338 336 333 330 329 331 334 337 336 337 339 336 328 326 327 328 328 328 327 327 328 328 328 327 328 331 333 334 335 337 338 339 341 343 345 345 343 339 335 332 333 336 341 346 350 351 351 351 351 350 349 346 345 343 341 341 342 343 345 346 348 349 349 349
321 326 324 318 321 331 338 336 334 334 336 342 343 333 328 328 326 332 343 341 333 332 332 330 330 329 327 328 331 334 337 343 348 340 326 322 324 325 325 326 325 326 326 326 327 327 326 328 330 332 334 335 336 338 339 340 343 343 343 343 341 338 335 335 336 340 345 350 354 354 352 351 351 349 347 346 344 342 341 343 344 346 348 349 348 348
328 332 335 330 326 329 336 338 336 336 339 343 341 332 326 326 325 330 340 341 335 331 328 326 326 325 324 325 325 328 334 340 342 335 324 322 325 323 324 325 325 325 325 325 325 326 325 326 328 330 333 333 334 336 337 338 339 340 341 341 341 342 341 340 341 343 344 346 350 354 353 349 347 346 345 345 345 343 341 342 344 346 348 348 347 347
343 344 340 334 332 335 337 334 331 335 337 335 332 328 325 326 328 331 339 340 335 330 325 324 324 323 324 324 323 325 328 329 329 327 323 324 325 323 324 325 324 325 325 325 325 325 325 325 326 328 330 331 332 334 335 336 337 337 338 339 340 340 341 342 344 345 345 344 344 349 351 347 340 338 338 338 339 342 343 343 344 345 346 345 345 345
346 344 337 336 338 341 343 337 332 336 336 329 326 326 324 325 331 336 340 338 331 326 324 324 324 324 324 324 324 325 325 325 325 325 324 325 325 324 325 325 325 325 325 324 325 325 325 325 324 325 327 329 331 332 333 336 336 335 337 339 339 339 340 341 342 342 343 344 342 343 347 345 337 333 334 335 335 337 340 342 343 344 344 343 342 342
338 336 336 339 337 335 342 342 336 335 331 323 322 324 323 327 335 337 335 329 324 325 325 324 325 325 325 325 325 325 325 325 325 325 325 325 325 325 325 325 325 325 324 325 325 324 325 325 325 325 325 326 329 331 333 335 336 335 336 337 338 339 340 340 340 339 339 341 341 341 341 341 337 332 333 337 337 334 334 337 339 340 341 341 340 339
329 329 334 337 333 332 339 340 336 335 330 322 323 326 326 329 333 330 327 324 324 325 325 325 326 326 325 326 326 325 326 326 325 325 325 325 325 325 326 325 325 326 325 325 326 325 325 326 325 325 325 324 326 329 331 334 335 334 334 335 337 338 339 339 341 340 338 337 339 340 338 337 337 333 331 335 336 334 333 335 337 338 338 338 338 339
328 330 335 335 332 333 339 339 334 332 327 322 325 327 326 326 326 324 324 325 325 325 325 325 326 325 326 326 326 326 326 325 326 326 325 326 326 326 326 326 326 326 326 326 326 326 326 326 326 326 326 325 324 325 328 329 330 331 332 332 334 336 337 337 338 339 338 336 336 338 337 337 338 335 332 333 336 336 334 335 337 338 338 339 339 339
326 328 330 331 327 327 333 335 330 325 322 323 325 325 324 324 324 324 325 324 324 325 325 325 326 325 326 326 325 326 326 326 326 327 326 326 326 326 326 327 326 327 327 326 327 327 327 327 327 326 326 326 325 325 325 325 326 328 329 328 328 331 333 334 336 337 337 336 335 336 337 338 337 335 333 332 335 336 336 336 338 338 338 339 340 340
322 322 326 328 326 324 325 326 324 322 323 323 323 323 323 324 324 324 325 325 325 326 325 325 326 326 326 326 326 326 326 326 326 326 326 327 327 327 327 327 326 327 327 327 327 327 327 327 327 327 327 327 326 326 325 325 325 325 326 325 325 326 328 331 334 336 336 335 335 335 337 338 338 336 334 332 332 334 335 335 335 334 334 336 337 340
322 321 327 329 327 328 329 325 321 323 324 323 323 323 323 323 323 324 324 325 325 326 326 326 325 325 325 326 326 326 326 326 326 326 326 326 326 326 326 327 327 327 327 327 327 327 327 328 327 327 327 327 327 327 326 325 325 325 326 326 325 325 326 328 331 335 335 335 335 335 337 339 339 337 335 333 331 332 333 334 335 334 333 333 334 336
323 322 327 329 328 328 327 324 321 322 323 322 323 323 322 322 323 323 324 325 325 326 326 325 325 325 325 325 325 326 326 326 326 326 326 326 326 326 326 326 327 326 326 327 327 327 327 328 327 328 328 327 327 327 327 326 326 326 327 327 326 326 327 329 334 337 336 334 334 335 335 337 339 339 338 336 334 333 334 335 337 337 336 336 335 336
322 323 324 326 328 326 323 322 322 324 325 324 322 323 322 323 324 325 325 326 325 325 325 325 324 324 324 324 325 325 325 326 326 326 326 325 325 325 325 325 325 324 324 325 325 325 325 326 326 327 327 328 328 327 327 327 327 326 327 327 327 327 327 330 336 339 338 335 334 335 335 335 337 339 339 338 338 337 336 336 336 337 337 338 340 340
325 326 323 325 329 329 327 326 323 326 330 327 322 322 324 324 325 326 325 325 325 325 325 324 323 323 323 324 324 324 324 325 325 325 325 325 325 325 324 324 323 323 323 322 323 323 323 324 325 326 326 327 328 328 328 328 327 327 327 327 327 327 327 328 331 335 337 336 334 334 334 335 335 335 336 336 338 338 339 338 337 337 337 338 341 343
323 323 324 328 331 328 326 324 322 323 326 324 321 323 325 325 325 325 324 324 324 323 323 323 323 323 323 323 323 323 323 323 324 324 324 324 324 324 324 323 323 323 323 323 323 323 323 323 324 325 326 326 326 326 327 327 328 328 327 327 327 327 327 327 327 329 333 335 334 333 334 334 334 333 333 333 334 336 338 339 339 339 339 339 341 343
Wind_Speed
6 4 3 4 7 7 4 4 5 5 3 1 0 2 5 5 7 7 4 4 6 5 5 8 8 9 7 5 4 8 13 15 17 17 18 20 21 22 24 26 29 29 27 25 24 24 23 23 23 22 21 21 21 21 21 23 23 22 21 20 19 17 16 17 17 17 18 17 17 16 15 14 13 13 12 11 10 10 10 11 11 11 12 12 14 15
5 3 5 8 9 6 2 5 5 3 1 1 1 3 5 4 7 8 3 4 1 4 4 2 5 10 9 7 6 6 10 14 21 21 20 23 22 22 23 25 27 27 25 24 23 22 21 21 22 22 22 21 21 22 22 22 22 22 22 21 20 18 18 19 18 18 18 17 16 14 12 10 10 11 11 9 9 8 9 10 11 11 11 12 14 15
5 3 10 9 5 2 2 5 5 3 1 1 1 0 4 4 5 7 4 4 1 3 4 1 4 8 8 7 6 7 12 16 22 24 23 22 19 21 23 24 25 25 26 25 24 22 20 20 21 21 22 22 22 22 22 23 22 23 23 22 22 20 19 19 19 19 18 16 14 13 12 10 9 9 9 9 9 9 9 10 11 11 12 13 14 16
1 5 7 4 3 3 1 2 5 1 1 2 3 3 3 4 2 4 5 4 2 0 2 3 2 5 6 5 5 6 13 14 14 17 20 19 19 22 23 23 24 25 26 25 24 23 20 19 20 22 23 23 23 23 24 24 24 24 23 23 22 21 20 20 19 18 17 16 14 14 13 12 11 10 10 10 10 11 11 10 11 11 12 13 14 16
6 8 4 2 3 5 3 2 5 2 3 3 5 5 4 5 4 4 2 2 4 3 1 4 3 5 4 5 6 4 6 11 11 11 16 19 22 23 23 23 24 24 25 24 24 23 22 21 21 22 23 24 24 25 24 24 24 24 23 23 22 21 21 20 19 17 17 17 16 16 15 15 16 15 14 13 12 12 11 11 10 10 11 13 14 16
8 8 3 2 1 3 3 3 6 7 2 3 5 9 8 6 5 2 1 3 5 4 3 2 2 5 5 5 6 5 4 7 9 9 15 20 21 22 24 28 27 25 24 24 23 22 22 22 22 22 23 24 25 25 24 24 24 24 23 23 22 22 21 21 20 18 17 18 17 18 18 18 19 17 15 13 11 10 9 9 9 9 10 12 14 16
5 4 2 1 3 5 2 3 5 7 5 2 5 9 8 5 5 4 4 3 2 2 4 2 4 3 6 4 5 5 5 7 6 7 15 21 22 22 24 28 28 27 25 24 23 21 21 23 23 24 24 25 24 24 24 24 24 24 24 23 22 22 21 21 21 19 18 19 18 19 19 19 19 18 15 12 10 8 8 8 8 8 10 11 13 16
3 4 5 5 6 5 4 4 5 6 7 3 5 6 6 4 5 6 6 4 2 3 4 4 4 2 4 5 6 5 5 7 6 7 13 20 25 25 25 27 27 26 25 24 24 23 21 22 24 25 25 24 24 24 24 24 24 24 23 22 22 22 23 23 22 20 19 19 19 19 19 19 19 19 17 13 10 8 8 8 8 9 9 11 13 15
2 3 2 2 4 3 4 5 6 8 3 7 5 5 3 3 5 6 6 4 1 2 3 5 3 3 3 6 5 4 3 6 7 8 10 18 25 26 25 25 22 20 21 21 21 21 20 20 21 23 25 25 25 24 24 23 23 23 22 22 23 24 23 23 23 22 20 19 19 19 19 20 19 18 18 16 13 10 9 8 9 10 9 10 13 15
4 5 5 4 2 4 7 7 6 9 4 4 5 5 3 4 4 4 5 4 3 3 4 6 2 3 4 6 4 3 2 5 7 7 9 16 24 24 22 19 15 14 15 15 16 15 15 16 17 20 23 25 26 25 24 24 23 23 23 24 25 23 20 19 21 23 23 21 20 20 20 20 19 18 18 18 16 13 11 10 9 10 10 10 12 14
6 6 5 4 6 7 5 3 3 8 5 1 5 3 4 6 5 4 3 4 3 1 6 7 3 4 1 6 3 2 3 5 5 5 8 14 20 21 17 13 11 11 12 12 12 11 12 13 15 17 20 23 24 25 24 24 24 23 24 24 24 22 19 19 19 21 23 23 21 20 20 21 20 19 19 19 18 16 13 11 10 10 10 11 12 14
7 2 3 5 7 5 2 1 1 1 1 4 4 3 4 5 5 4 5 4 3 3 6 5 1 5 1 5 5 4 6 5 5 6 6 10 16 19 15 12 11 11 12 12 11 11 10 11 13 15 17 20 22 23 23 23 24 24 24 24 23 23 22 21 21 21 23 23 22 21 21 22 21 20 20 20 19 17 15 12 11 10 11 11 13 14
6 2 3 6 4 3 4 2 3 5 5 4 2 4 4 4 4 3 3 2 1 4 3 3 1 3 3 6 6 6 7 7 7 8 7 9 15 17 14 11 11 12 13 13 12 12 11 11 12 13 15 17 19 20 21 22 23 24 24 23 22 23 22 22 23 23 23 23 23 21 21 22 22 21 21 21 20 18 16 13 12 11 11 12 13 15
4 5 7 8 3 1 3 4 1 3 2 3 3 3 3 2 3 1 3 2 2 2 2 4 1 1 4 4 4 6 8 9 9 10 10 10 13 14 13 11 11 11 12 13 13 12 12 12 12 13 14 15 17 17 18 19 21 22 23 22 21 20 21 23 24 23 23 23 22 22 21 21 22 22 22 22 21 19 17 14 12 11 11 11 12 13
2 4 5 3 2 3 0 4 5 4 3 2 4 5 3 3 3 2 3 2 3 2 3 5 1 2 3 3 5 8 10 8 4 5 7 8 9 11 11 10 9 9 10 12 12 10 11 11 11 12 13 13 14 14 14 15 17 20 22 22 21 18 18 21 23 23 23 22 22 22 21 20 21 22 22 23 22 20 18 15 12 11 10 10 11 11
3 3 6 5 5 3 2 3 4 6 3 1 3 4 0 3 4 1 2 4 3 1 1 3 2 3 4 4 7 7 6 4 4 2 4 5 6 8 10 9 8 9 9 9 9 8 8 8 9 10 11 12 12 12 12 12 13 16 18 21 22 19 18 19 21 22 21 22 22 22 20 19 20 22 23 23 22 21 18 15 13 11 10 9 9 10
3 2 5 7 6 3 3 2 0 3 1 1 1 1 4 3 6 4 1 1 3 2 1 1 3 5 3 3 6 6 5 6 7 5 5 6 6 7 9 10 9 9 8 7 7 5 5 6 8 9 10 10 10 10 10 11 11 12 15 18 20 20 20 19 19 20 21 21 22 21 20 19 20 22 23 22 21 20 18 16 14 12 11 10 9 10
3 1 5 5 4 6 7 2 2 3 3 3 1 3 3 2 4 4 1 3 4 1 2 2 2 5 2 1 5 6 5 5 6 6 7 8 8 9 10 10 8 7 7 7 6 5 4 5 7 8 8 9 9 8 8 9 10 12 13 16 18 20 20 20 19 19 21 21 21 21 20 19 19 20 21 21 21 20 19 17 16 14 12 10 9 9
3 1 6 3 3 7 8 5 3 6 6 5 3 3 2 2 1 1 2 1 1 1 3 3 3 3 3 3 4 2 3 5 5 6 7 9 11 11 12 11 8 6 7 7 7 6 5 6 7 7 8 9 9 8 8 7 9 11 13 15 18 20 20 20 20 20 21 21 20 20 20 19 19 19 19 21 20 21 21 19 17 16 13 11 10 10
2 2 4 5 3 4 6 5 2 6 6 5 3 2 3 3 3 0 1 2 2 2 2 2 3 2 5 5 4 5 6 5 5 5 5 11 15 14 14 12 9 7 7 7 7 7 7 7 8 7 8 8 8 8 8 8 8 9 12 14 17 20 20 20 21 21 21 20 19 19 19 19 18 17 18 19 20 21 21 20 19 18 16 14 12 11
2 3 1 6 5 3 3 2 2 0 3 4 4 5 4 2 1 1 1 1 2 3 2 1 1 5 6 4 6 7 8 8 8 7 7 13 18 16 15 14 11 9 7 7 8 8 8 8 9 8 8 8 8 8 8 8 8 8 10 12 15 18 20 20 20 19 18 17 17 17 18 17 16 16 17 18 19 21 21 21 21 19 17 16 14 13
1 2 1 3 5 2 2 3 2 3 1 4 4 2 1 1 3 3 2 3 1 3 3 4 2 6 6 2 4 6 5 5 7 9 10 15 18 16 15 14 12 10 8 8 9 8 8 9 9 9 9 8 8 8 8 8 9 8 8 9 11 14 16 17 16 15 14 14 15 16 15 15 14 15 16 18 19 20 21 22 21 18 18 18 17 15
2 3 3 1 2 2 6 6 3 4 2 6 4 2 1 2 4 4 1 3 1 2 1 3 2 5 5 2 3 6 6 9 8 9 13 16 17 17 16 14 12 10 8 8 8 8 8 9 10 11 10 9 9 9 8 8 9 8 7 7 8 10 11 11 12 12 12 14 14 14 14 13 13 14 15 17 19 20 22 22 19 18 19 20 18 17
2 3 3 2 4 4 5 6 4 1 5 5 4 3 2 1 1 5 4 1 1 1 1 2 0 5 5 6 6 7 10 10 9 8 12 16 17 18 16 13 11 11 10 9 9 9 9 9 11 13 13 12 10 9 8 8 9 9 8 7 7 7 8 9 10 11 11 12 13 13 13 13 13 14 15 17 18 19 21 20 18 18 20 20 19 20
2 1 2 3 4 6 6 6 6 5 4 2 2 4 4 3 2 2 1 3 1 2 3 3 2 5 5 7 11 15 15 13 13 11 7 11 15 16 15 12 10 10 11 10 10 10 10 12 12 12 13 14 12 9 8 8 10 10 10 10 9 7 7 8 9 10 11 12 12 12 12 12 13 14 15 16 17 18 19 18 17 18 20 20 20 20
2 2 3 4 3 0 1 2 3 3 3 2 2 5 5 4 4 2 2 3 1 2 3 3 4 5 6 10 13 15 13 12 16 19 17 15 15 14 14 14 13 13 14 13 13 13 14 15 15 14 12 11 11 10 8 8 10 11 13 14 13 11 9 8 9 10 11 11 11 11 11 11 12 13 14 15 16 16 16 15 16 18 19 19 20 20
4 3 2 5 6 6 5 6 5 1 2 1 3 5 5 5 3 3 3 1 1 2 1 4 5 0 7 11 12 12 11 9 13 19 22 22 22 20 19 21 21 21 20 18 16 16 15 15 15 14 12 10 9 9 8 7 9 11 12 13 13 12 11 10 9 9 10 10 10 10 9 9 10 10 11 12 13 14 14 14 15 18 18 17 19 20
4 3 1 4 4 6 7 5 3 2 3 2 1 4 4 5 3 4 2 3 1 3 4 7 3 3 5 8 9 9 9 8 11 16 20 22 26 27 28 29 30 30 30 28 26 23 20 18 17 15 13 10 8 8 8 7 7 8 8 8 7 7 7 9 9 9 9 10 10 9 8 6 7 7 8 9 10 11 12 13 14 16 16 17 18 19
5 1 1 3 2 4 4 3 1 4 4 2 1 3 3 4 5 4 1 3 1 4 4 3 3 5 4 6 7 8 9 8 10 16 20 25 28 30 33 34 34 35 34 33 33 31 28 26 23 20 17 14 10 8 7 7 6 7 8 8 6 6 6 8 9 9 10 11 11 10 9 8 7 7 7 8 9 9 10 11 13 15 16 17 17 17
3 1 1 2 1 3 3 4 0 6 5 3 4 4 3 4 6 5 2 2 2 4 2 2 8 8 4 5 7 9 10 9 14 22 27 30 30 31 33 34 33 33 33 33 34 34 33 31 28 25 22 19 15 11 8 7 6 6 8 9 9 9 10 10 12 11 10 11 12 12 12 11 9 8 8 9 9 9 8 9 10 12 14 15 16 16
2 1 1 2 1 4 3 3 3 5 6 4 5 5 3 4 5 5 3 3 3 3 1 3 8 6 4 7 8 10 13 16 21 26 28 28 29 31 32 32 32 31 30 31 33 34 35 34 31 29 25 22 19 14 11 11 9 8 8 9 9 10 10 10 10 9 8 9 12 13 14 13 12 11 10 10 10 10 10 9 9 10 12 13 15 15
2 0 2 4 2 4 3 3 2 2 5 7 7 6 5 5 4 3 3 2 1 1 3 5 5 1 4 8 8 9 15 20 22 23 24 27 29 30 31 32 33 32 29 28 31 33 34 35 33 31 28 24 20 16 13 12 12 11 10 9 8 7 9 9 8 7 8 9 11 13 14 14 13 13 12 11 12 12 11 10 10 11 11 12 13 14
2 3 1 2 2 4 5 2 2 2 5 4 3 2 2 3 3 2 3 4 2 1 2 2 1 2 4 5 4 6 11 15 19 22 24 26 27 29 30 31 31 31 27 25 27 30 32 32 32 30 28 26 22 17 13 12 13 13 11 8 7 6 7 8 7 8 9 9 9 11 13 13 13 14 13 13 12 12 12 12 12 12 12 11 11 13
3 5 2 3 3 4 6 4 4 3 1 3 4 2 4 4 5 5 3 4 4 3 3 3 1 2 4 6 5 7 9 10 15 22 25 25 26 28 28 29 30 30 27 25 26 27 28 28 28 26 24 23 22 19 14 12 12 12 11 9 7 7 7 7 7 8 8 9 9 10 11 12 13 14 14 13 13 13 13 13 13 13 13 12 12 14
4 4 2 2 3 2 3 4 5 1 5 5 2 2 5 7 8 8 4 2 4 4 3 3 3 5 7 7 5 5 5 5 9 17 22 21 22 24 25 25 25 24 23 24 24 24 24 24 25 24 20 17 18 19 16 13 11 10 9 10 9 7 7 7 8 8 7 7 8 9 11 12 13 14 14 13 13 14 14 14 14 14 14 14 14 15
5 5 3 2 2 1 2 4 2 4 5 3 2 0 3 4 5 4 3 4 4 3 1 2 3 6 8 5 3 6 6 4 1 8 15 16 16 19 22 22 21 19 18 19 19 20 20 20 20 21 18 13 15 18 16 14 14 12 9 8 9 8 8 9 10 10 9 7 7 7 9 11 12 13 14 14 14 15 15 15 16 15 15 15 16 16
6 4 3 2 1 2 2 2 0 2 2 2 2 1 2 0 2 2 2 2 4 3 1 0 2 5 7 3 3 6 7 5 3 5 13 16 14 15 16 16 17 18 18 18 17 18 19 18 17 18 17 14 14 17 17 16 18 17 13 9 9 8 9 10 11 11 11 10 8 7 8 9 11 12 13 14 15 16 16 17 16 16 17 18 18 19
4 2 4 3 1 2 4 3 2 1 2 5 5 2 1 5 6 4 4 1 4 4 2 1 1 3 4 4 1 3 2 3 2 5 14 18 16 15 15 15 17 18 18 18 17 18 19 18 17 16 15 15 14 15 17 17 17 18 17 14 13 11 11 11 11 12 12 11 9 8 8 8 10 12 13 15 16 17 18 18 18 17 18 19 19 19
6 3 3 3 1 2 4 3 2 3 4 4 6 6 10 11 4 4 4 2 5 3 1 2 1 3 3 4 5 4 3 3 1 6 14 18 17 18 18 17 17 17 17 18 18 18 19 18 16 14 13 14 15 15 16 15 15 16 17 17 17 16 16 15 14 14 14 12 9 6 6 7 9 11 13 15 17 18 18 18 18 18 19 20 19 18
5 4 3 3 2 2 3 3 2 2 3 2 4 8 14 10 2 4 1 4 5 3 2 1 3 5 6 8 8 6 5 2 4 8 15 16 16 18 18 17 17 16 16 16 17 17 18 18 17 14 11 12 15 17 16 15 15 15 16 17 17 17 17 17 16 15 16 15 12 7 6 7 9 11 13 15 15 16 17 17 18 18 19 19 19 19
4 3 2 3 2 2 3 2 1 2 2 3 6 10 12 7 3 2 3 5 3 3 4 5 7 8 9 11 10 7 5 5 7 11 13 14 14 15 14 14 15 15 16 16 16 16 17 18 18 17 14 12 14 17 18 17 16 15 15 15 15 16 17 17 16 17 17 17 15 12 9 9 10 13 14 14 14 14 16 17 18 19 18 18 19 19
2 2 2 2 2 2 3 2 1 2 2 6 9 8 8 3 2 3 2 1 2 4 5 6 7 7 9 10 9 8 8 9 10 12 12 13 14 14 13 13 14 15 15 16 16 15 16 16 17 18 18 15 14 16 18 18 18 17 15 14 14 15 16 16 18 19 19 17 15 13 12 12 13 15 15 13 12 14 15 15 17 18 19 19 19 20
1 1 2 0 1 1 2 3 1 2 4 9 8 4 5 2 3 3 1 3 4 4 5 6 6 6 8 9 9 10 11 12 13 14 14 15 15 15 14 14 14 15 15 15 15 14 14 15 15 16 17 17 16 17 18 20 20 19 17 15 14 14 16 16 17 18 18 17 15 14 14 15 15 16 17 15 13 13 13 14 16 18 19 20 21 21
1 2 1 2 1 2 2 0 2 5 4 8 6 4 3 4 5 4 3 3 3 5 6 6 7 8 10 12 13 14 15 15 15 15 15 16 16 16 16 15 15 14 14 13 13 13 13 14 15 15 15 16 17 18 19 21 22 21 19 18 16 16 16 16 15 16 16 15 16 17 16 17 17 18 18 17 15 14 14 15 16 17 19 21 22 23
1 3 3 2 1 2 3 4 4 3 1 8 11 10 7 7 6 4 2 2 4 5 6 8 10 11 12 14 16 17 17 17 17 16 16 17 17 17 18 17 17 16 15 14 13 12 13 14 16 17 17 16 17 18 20 22 24 23 21 20 20 18 17 16 15 14 13 11 13 15 16 16 17 17 18 17 17 17 16 16 17 18 19 21 23 24
1 2 4 2 1 0 1 1 2 2 3 6 8 8 6 5 3 2 2 3 5 6 7 10 12 13 14 14 16 17 17 18 18 18 18 18 19 20 20 20 19 18 17 17 15 14 14 14 16 18 19 19 18 19 21 23 24 24 23 23 23 21 18 17 16 14 11 9 9 11 13 14 14 15 16 17 19 19 17 16 16 17 18 20 22 24
2 2 2 2 2 2 0 1 1 2 2 3 4 3 3 3 4 4 5 6 7 8 10 11 12 14 14 14 15 16 16 16 17 18 19 20 21 22 22 23 22 21 21 20 19 19 19 18 18 19 20 21 20 19 21 23 24 24 23 23 24 23 20 17 16 13 11 9 8 10 13 14 14 15 17 18 19 19 18 18 18 18 18 19 20 21
2 2 2 2 3 1 3 4 2 2 2 1 1 2 4 5 6 6 7 8 10 11 12 12 12 13 13 14 15 16 16 16 16 17 19 21 22 24 24 24 25 24 24 23 23 23 23 22 21 21 21 21 21 19 19 21 22 22 21 20 21 22 19 16 13 11 9 9 9 11 13 13 15 17 18 20 21 22 21 20 20 21 21 20 20 20
2 2 1 2 2 1 2 3 2 1 3 4 3 5 7 7 8 8 8 10 11 11 12 11 11 12 13 14 15 16 17 18 18 19 21 23 24 25 26 26 26 27 27 26 25 25 25 24 23 22 21 22 21 20 19 20 21 21 20 19 20 21 19 15 11 9 9 10 11 13 15 15 14 15 17 19 21 23 23 22 22 23 24 23 22 21
3 1 2 3 3 1 3 5 6 3 4 6 7 8 8 7 8 8 9 10 10 10 11 11 12 12 13 13 14 16 18 20 21 22 24 26 26 26 27 27 28 29 29 29 28 27 27 25 24 23 22 22 22 22 22 22 22 22 21 20 20 21 20 18 15 12 11 12 13 15 17 18 16 14 15 16 17 20 24 25 25 25 26 26 24 23
2 3 3 2 2 3 4 8 11 8 5 6 6 7 7 7 7 7 8 8 8 9 11 12 13 14 15 15 16 18 19 21 23 24 26 27 27 28 28 29 29 30 30 30 29 28 27 26 25 24 23 23 23 24 25 26 25 24 23 22 21 21 22 21 20 17 14 14 15 17 19 21 21 19 17 16 16 18 20 23 26 27 27 27 27 25
Wind_Direction
32 23 320 260 242 251 243 179 194 194 167 58 47 254 259 264 281 261 249 258 171 156 240 222 231 268 282 291 274 222 213 221 230 231 232 231 231 231 230 232 236 239 245 248 246 244 245 246 246 244 241 239 238 237 237 239 240 242 240 236 232 229 222 219 220 221 220 219 219 218 221 226 225 224 228 234 237 239 243 244 238 235 232 228 225 220
45 43 259 237 232 238 179 167 189 204 196 329 210 285 290 231 260 266 260 316 206 185 270 238 228 267 271 271 276 224 208 223 227 225 228 231 232 234 235 237 239 244 249 250 250 248 246 245 244 243 240 236 235 234 233 233 236 239 239 237 235 232 224 220 221 221 224 227 226 228 233 238 234 229 231 236 238 239 241 241 235 231 229 224 221 217
24 271 253 249 237 183 134 168 182 214 233 254 161 339 296 249 266 289 312 342 41 196 271 189 194 259 271 274 278 227 212 226 228 224 228 233 236 239 240 242 243 245 248 251 253 252 249 246 242 240 238 235 233 232 233 232 233 235 236 237 236 234 228 222 223 224 228 234 235 236 241 245 246 243 241 238 232 226 225 230 230 226 224 221 218 214
358 247 248 249 189 155 238 190 161 209 298 190 153 137 263 266 265 294 315 347 30 125 240 156 184 278 298 308 304 242 228 244 250 238 237 240 244 248 249 250 250 248 248 250 253 254 252 247 242 238 236 233 231 230 230 231 231 232 234 236 236 234 230 225 227 229 229 234 238 240 242 244 249 253 253 246 234 225 221 224 226 222 220 219 216 212
238 248 234 161 168 183 230 199 149 175 285 242 191 181 229 247 214 226 279 2 3 352 90 94 25 318 326 337 320 299 251 258 267 260 252 248 249 255 260 260 257 255 254 253 252 253 252 248 243 241 238 233 231 230 229 229 230 231 232 234 235 236 232 228 229 231 230 231 234 237 238 238 240 243 245 243 236 231 229 228 229 227 223 221 217 213
258 268 252 201 179 159 197 224 184 178 231 300 223 204 213 212 199 200 77 60 32 343 299 48 29 295 318 341 298 314 324 267 266 272 264 258 256 258 262 264 263 261 259 258 256 253 251 250 246 243 239 233 232 233 232 230 230 231 233 234 236 237 234 231 230 230 230 231 232 234 234 234 235 239 242 243 241 243 248 245 241 238 234 229 222 216
261 295 35 98 83 88 83 274 222 161 117 327 248 205 196 165 130 135 145 110 82 266 296 37 135 250 318 335 285 302 318 289 282 274 266 264 263 261 262 268 270 266 262 261 261 257 250 247 245 242 240 236 235 235 235 233 231 232 234 235 237 237 236 234 232 231 232 233 234 236 237 238 241 246 251 254 252 254 265 266 258 249 244 238 229 221
250 312 10 47 64 60 13 300 232 143 112 249 241 165 159 149 150 170 157 135 182 215 325 10 113 128 315 281 278 304 302 297 293 270 268 265 263 263 264 269 274 273 269 266 266 265 259 251 246 244 243 241 239 237 236 235 234 232 233 235 238 238 238 237 234 234 236 237 238 240 241 244 247 252 257 260 255 249 254 262 262 254 248 244 235 225
231 278 307 82 51 359 276 245 195 142 136 248 209 135 150 163 161 161 136 129 133 110 315 318 91 111 277 274 305 344 301 292 281 259 261 261 261 264 266 271 277 278 278 277 277 277 272 265 256 251 248 245 242 239 237 237 236 236 235 234 234 236 239 241 238 237 240 242 242 243 244 244 246 251 255 255 249 241 241 250 259 258 251 247 240 229
236 226 216 157 157 247 239 239 180 153 199 241 143 112 39 56 79 93 107 114 56 58 255 261 150 136 266 284 323 6 285 266 263 259 258 257 260 263 267 273 276 276 279 284 289 290 285 278 268 259 254 249 245 242 239 237 236 237 236 234 234 235 241 246 242 240 243 243 242 243 244 244 244 247 251 251 244 237 236 239 249 256 254 249 243 232
268 251 228 187 207 218 217 248 184 176 205 61 90 71 14 25 32 37 61 85 72 320 258 249 177 126 290 281 252 206 229 227 228 258 266 262 262 263 266 270 267 269 275 281 290 296 292 284 272 263 258 254 249 245 241 236 234 235 235 237 239 240 243 246 242 240 241 242 243 245 246 246 245 245 248 249 245 240 238 238 243 251 253 249 245 237
318 308 226 251 245 223 142 74 345 245 357 54 75 58 17 345 10 26 360 42 91 257 271 273 191 118 135 265 246 247 255 234 206 224 245 257 260 262 267 269 265 269 273 276 282 286 287 284 276 269 261 256 252 248 244 238 233 233 233 236 241 242 242 243 240 240 239 240 243 247 248 247 246 245 247 249 248 246 245 245 246 249 250 246 241 237
330 270 284 318 280 189 128 100 344 353 33 77 101 66 47 337 1 19 330 14 184 236 263 296 345 128 218 247 251 272 273 259 244 244 256 265 263 266 275 276 272 275 275 274 275 278 284 286 284 280 272 264 259 252 247 240 235 233 231 233 240 242 241 240 240 241 241 240 243 247 248 248 247 247 248 249 248 249 251 251 247 246 249 246 240 236
334 308 333 355 348 184 137 140 184 331 47 118 153 116 109 83 49 318 284 306 274 269 278 283 275 202 272 266 250 270 281 279 276 270 272 277 274 275 282 287 287 285 277 272 274 279 287 292 291 289 283 276 271 263 254 245 238 234 230 230 237 243 243 241 242 244 244 242 244 248 250 250 251 250 249 248 246 248 252 252 245 241 246 247 244 240
74 325 328 349 327 339 64 170 165 144 119 153 157 129 136 150 139 233 245 225 254 278 289 296 314 166 227 257 264 281 290 296 292 267 268 276 280 281 283 291 298 292 278 273 278 284 288 295 299 296 292 287 283 277 267 254 242 235 230 229 234 241 244 242 243 246 246 245 246 249 251 254 255 253 248 245 244 246 251 251 241 235 240 246 246 243
95 261 267 278 286 323 343 240 157 108 78 267 157 109 104 190 145 140 187 177 194 201 293 307 267 208 220 265 294 307 312 349 39 1 306 293 283 281 282 290 297 291 285 279 279 284 287 295 304 305 304 301 296 289 279 268 252 241 234 231 233 240 246 245 244 245 247 248 249 251 254 257 256 253 246 241 240 244 248 247 238 234 239 246 249 246
73 262 282 323 317 344 22 288 203 85 169 258 107 169 251 181 119 111 188 22 64 125 245 326 291 299 323 288 308 350 7 5 17 10 336 306 286 283 282 287 294 292 290 280 264 267 278 287 299 309 316 317 313 303 290 279 267 255 244 238 239 241 244 246 246 247 249 250 252 254 256 255 253 250 244 238 238 242 245 245 241 239 240 242 247 248
113 262 292 343 327 331 5 23 13 35 104 95 65 229 234 93 90 109 121 10 37 140 273 345 313 303 352 230 315 359 3 325 336 346 324 298 280 276 277 283 290 289 287 272 247 241 262 274 287 305 320 325 327 322 307 288 272 264 255 249 248 247 246 249 251 251 251 253 257 260 256 251 249 248 243 239 239 241 245 246 244 242 240 236 238 245
104 330 294 296 249 302 347 43 29 3 43 82 141 190 122 88 332 3 84 107 80 143 284 322 324 269 201 220 285 300 248 262 291 316 313 283 267 264 267 274 279 278 277 264 242 235 250 263 279 299 316 324 330 330 321 302 277 265 259 256 254 252 252 253 255 256 256 258 263 262 255 247 246 244 241 240 240 241 243 246 245 244 241 235 230 231
93 78 286 282 273 311 358 44 29 336 0 39 56 32 37 129 162 168 114 153 141 149 222 306 344 275 228 217 210 225 239 238 251 273 271 259 259 259 260 266 271 271 273 265 250 245 251 265 280 293 308 318 324 326 324 313 292 272 263 260 258 256 256 257 258 261 262 263 264 258 249 244 243 241 238 238 239 240 242 245 246 245 243 239 234 231
58 73 282 293 326 17 18 40 119 217 355 23 34 20 353 355 83 103 54 59 113 140 178 186 286 268 252 205 185 212 226 212 211 226 242 250 254 257 260 265 270 271 273 272 265 258 257 270 283 289 298 309 315 319 321 317 306 286 268 263 261 258 257 257 257 258 258 257 255 251 247 245 244 239 235 235 237 239 241 243 245 245 244 243 242 241
124 94 109 307 352 35 250 266 188 197 129 94 87 37 309 345 62 82 3 330 93 126 164 159 196 267 263 209 212 231 236 235 222 216 235 250 253 258 263 264 270 275 276 282 282 274 266 272 283 286 288 296 306 315 318 317 311 301 283 270 263 258 253 250 248 247 246 245 244 246 246 246 244 240 237 234 234 236 238 240 243 245 246 246 245 244
150 100 84 278 302 242 255 281 269 226 130 92 79 53 113 94 86 112 178 294 26 76 140 140 161 263 269 317 281 271 292 301 279 240 243 255 257 261 266 269 275 282 287 295 297 292 282 277 281 285 289 292 298 309 318 321 316 309 299 285 268 258 249 240 238 237 235 235 237 239 240 241 242 241 240 238 236 235 235 236 240 244 246 248 250 249
102 80 51 308 303 312 301 317 334 29 74 62 16 20 52 4 107 150 163 179 147 159 154 107 271 267 294 338 343 344 347 337 321 284 264 270 273 274 280 288 291 295 304 312 317 316 311 302 291 288 290 291 294 303 315 325 325 321 316 305 287 270 255 244 240 237 234 234 235 235 238 241 244 242 240 239 238 236 235 233 235 241 244 247 250 250
83 88 72 46 358 350 347 346 348 359 32 52 342 345 338 331 31 121 115 53 21 224 147 126 251 256 285 341 5 9 11 11 9 8 339 314 312 307 311 323 319 315 320 324 329 336 342 344 337 321 302 291 289 295 309 326 331 333 333 328 318 300 276 260 253 247 243 241 240 241 244 246 247 245 241 239 238 239 238 233 233 238 240 241 245 248
108 107 120 105 105 122 319 278 278 316 344 356 342 338 333 342 11 33 61 52 341 252 145 150 228 261 312 352 6 6 8 12 13 22 27 17 7 356 356 9 6 353 349 343 339 341 347 352 355 355 341 314 296 291 300 323 334 338 340 340 339 331 313 288 269 260 252 249 249 250 251 248 247 245 242 242 241 241 241 236 235 238 238 238 241 243
104 66 124 131 145 178 192 215 228 182 80 1 327 332 335 329 342 85 94 26 237 195 215 222 205 272 343 350 0 0 5 12 14 24 29 32 37 40 39 40 38 32 26 19 10 1 355 353 353 357 360 347 323 308 302 311 331 339 338 338 340 338 332 317 290 269 258 254 254 253 251 249 248 246 243 243 243 243 242 237 239 241 240 240 242 242
100 39 58 131 154 199 190 206 233 112 116 155 295 322 331 333 357 94 122 286 210 137 276 267 203 89 352 345 356 355 359 10 17 26 31 35 42 47 50 48 46 44 42 40 37 31 23 15 6 0 1 357 346 332 317 308 316 320 308 305 314 316 317 314 298 280 267 259 258 259 261 262 257 249 243 243 244 246 245 240 240 243 241 240 242 243
116 114 196 152 216 245 227 252 241 115 112 109 34 336 347 22 42 91 156 282 177 167 245 282 80 77 12 349 356 358 360 7 19 29 38 40 39 42 45 45 42 41 41 42 41 39 36 32 25 19 15 10 5 353 337 327 312 291 267 256 252 242 249 262 263 264 268 268 268 270 273 273 265 253 247 244 245 251 252 245 244 247 245 243 244 245
108 189 226 163 236 288 298 310 4 124 120 63 33 8 21 60 62 77 76 338 80 137 187 85 80 78 48 5 4 9 13 26 38 40 41 39 36 38 40 39 37 37 39 42 43 41 39 36 32 29 26 23 21 16 4 353 331 298 273 257 244 238 242 242 235 235 252 272 279 280 276 272 267 259 253 250 251 255 256 247 241 244 248 248 247 247
48 305 298 95 40 307 323 32 73 128 130 91 44 18 30 67 51 45 23 354 53 73 1 50 74 74 32 13 21 32 40 45 43 40 39 37 36 38 38 36 35 35 38 41 41 38 36 33 30 28 25 24 23 20 11 360 344 322 297 276 263 257 256 251 239 231 242 269 284 286 280 272 268 266 262 259 260 262 261 251 239 240 246 249 248 246
44 322 337 71 67 279 289 54 62 116 91 69 40 14 21 48 49 42 13 2 85 94 358 26 62 62 337 353 13 37 46 48 43 36 33 33 34 35 32 30 31 33 37 39 37 35 33 30 28 25 23 21 19 15 7 352 338 330 314 290 278 269 260 256 254 250 255 269 281 285 283 276 273 272 271 268 266 265 264 257 248 247 250 250 248 245
122 126 174 118 129 259 281 355 37 53 45 23 328 325 59 81 97 99 31 8 23 107 87 77 167 264 322 349 9 25 34 45 46 36 28 25 28 32 30 25 25 28 32 34 31 31 30 29 28 25 21 18 13 9 2 342 334 340 333 302 275 263 256 252 251 257 267 272 277 280 279 276 275 275 276 275 271 267 263 257 253 253 254 256 254 250
134 120 156 167 146 254 282 339 37 48 19 257 254 202 144 139 121 103 61 354 353 30 97 126 217 330 11 23 19 3 2 22 37 37 35 30 26 28 31 31 31 33 35 32 27 25 27 29 30 27 22 17 8 3 355 336 334 347 348 332 301 270 256 248 245 255 265 267 270 273 272 271 272 273 275 275 272 268 264 259 256 255 256 257 255 251
135 131 145 139 130 222 302 28 49 267 239 242 260 115 123 124 114 105 91 23 359 13 55 60 26 39 48 35 7 344 347 8 38 43 41 31 19 15 15 17 22 28 31 28 23 19 22 29 31 28 26 18 1 351 340 326 325 330 337 342 327 285 260 253 255 264 270 267 263 262 264 267 269 269 271 272 272 271 270 268 266 264 263 262 258 255
145 144 146 116 139 177 34 57 103 241 256 273 298 198 129 110 101 92 51 12 352 342 29 39 23 61 70 42 303 241 233 248 8 48 35 19 6 2 359 359 5 11 12 13 13 14 16 22 25 23 22 14 355 345 333 319 315 315 319 333 332 304 277 272 275 280 285 285 277 265 263 267 269 269 270 271 273 274 274 274 274 273 272 269 266 264
143 138 145 118 155 153 107 83 335 311 290 261 271 168 138 223 263 187 130 8 335 336 349 284 13 72 95 76 310 257 250 281 307 11 20 16 9 5 6 12 19 19 16 13 11 12 12 12 12 12 10 4 356 351 342 325 318 321 323 322 318 307 294 295 301 304 303 304 300 291 284 281 279 279 277 275 275 276 277 277 275 274 273 271 270 270
100 126 160 153 159 120 98 81 33 15 234 241 255 246 14 324 282 196 133 73 319 345 357 223 341 41 97 102 72 244 265 11 346 338 1 8 10 12 19 28 29 25 20 15 8 5 5 4 4 4 360 351 347 351 350 339 328 328 328 322 315 309 302 304 312 318 318 316 310 302 300 298 293 290 287 283 280 278 278 278 276 275 273 270 270 270
48 53 113 108 97 106 105 118 159 193 219 245 258 285 332 335 283 161 99 319 294 334 6 186 77 37 55 66 81 117 89 49 278 319 349 356 1 6 9 13 17 18 15 9 3 359 357 357 358 359 352 341 335 339 345 343 339 338 336 335 330 323 318 318 319 320 319 315 309 297 288 287 285 283 282 280 278 277 276 276 275 275 275 276 276 275
30 21 49 78 101 111 111 132 199 223 223 239 264 302 332 346 88 120 48 271 272 333 3 1 25 32 30 25 38 68 73 27 298 326 346 352 357 0 360 359 2 4 2 359 357 352 348 347 348 347 342 333 328 330 332 330 333 340 346 351 351 346 343 339 329 319 313 308 303 290 269 266 268 271 272 271 271 270 269 269 270 269 269 272 275 275
10 7 49 110 114 80 102 124 269 248 219 292 307 323 341 0 87 115 229 236 276 4 33 35 29 29 25 22 27 33 22 355 335 336 345 352 355 356 354 350 348 347 347 346 345 344 341 338 337 335 330 322 317 320 322 321 324 333 342 355 3 2 358 348 334 327 324 320 312 298 282 269 259 261 268 271 270 269 263 260 262 264 265 267 268 268
354 354 14 75 67 42 111 114 314 259 281 321 320 338 5 22 186 213 224 225 8 35 55 50 42 31 18 15 16 4 350 345 340 335 336 341 343 343 340 336 334 333 333 332 331 333 333 331 329 327 324 318 309 308 312 313 319 326 333 343 354 353 348 343 342 345 347 340 324 301 281 271 261 260 266 272 273 271 263 256 256 261 265 266 265 266
152 68 359 105 150 78 80 63 53 214 300 333 333 345 17 49 182 192 108 89 67 55 49 35 26 17 3 354 351 346 340 337 334 330 328 328 329 331 331 330 330 328 328 328 327 325 326 327 326 323 321 318 311 305 305 308 313 320 326 333 335 332 332 337 345 353 357 352 337 310 284 275 273 267 265 265 264 263 259 254 256 261 264 264 265 265
160 150 201 240 196 117 116 164 203 210 296 1 43 112 99 97 116 104 84 87 45 18 7 359 356 356 349 342 339 338 335 335 334 331 329 326 325 325 326 326 326 324 323 325 326 325 326 325 323 321 320 318 312 304 301 304 308 311 318 327 327 319 321 328 336 349 359 356 342 323 301 287 282 273 265 261 258 255 255 255 257 261 263 265 267 266
251 181 155 166 179 160 176 205 206 205 13 50 83 107 107 98 96 79 45 4 357 354 346 343 341 340 339 335 332 332 333 334 334 333 332 330 329 328 326 326 326 325 322 321 322 324 323 321 320 319 317 315 313 305 299 301 306 306 308 316 320 317 318 320 322 337 354 355 343 329 312 297 286 273 266 265 260 255 255 256 256 260 263 265 267 269
302 131 120 117 161 130 92 147 158 127 73 74 83 88 87 82 69 47 15 346 342 341 339 337 333 332 333 332 329 330 332 332 333 334 332 330 329 328 327 325 324 324 323 321 321 321 319 316 313 311 310 310 310 306 300 300 306 308 307 308 311 314 317 316 313 322 335 340 336 320 304 297 288 264 250 254 258 258 260 259 257 260 263 264 266 270
341 76 88 78 83 87 76 248 185 110 83 76 75 72 61 34 1 348 341 332 329 330 331 332 331 329 331 332 332 331 331 332 335 335 332 329 327 325 325 323 321 319 318 316 316 316 315 313 309 306 305 305 304 303 300 298 302 307 309 309 308 310 313 313 309 311 318 317 314 304 295 295 291 268 247 243 249 256 263 264 262 261 262 263 266 271
330 21 58 78 87 124 239 248 215 168 213 232 58 342 331 333 323 312 312 311 311 316 320 322 326 330 333 335 336 334 332 332 334 335 332 328 324 322 321 320 318 317 315 312 311 311 311 311 308 304 301 301 300 299 295 293 296 301 304 306 305 306 311 313 306 301 304 299 293 293 293 293 290 279 265 255 252 254 259 263 265 264 263 264 267 272
327 349 92 100 69 358 271 245 198 227 268 259 261 291 304 305 298 298 302 303 305 311 315 316 322 329 332 334 335 335 332 329 329 330 329 325 322 320 319 318 317 316 315 313 312 310 309 309 308 304 299 297 298 295 290 287 289 291 294 300 301 300 305 312 304 287 284 284 280 281 286 290 292 288 282 276 269 262 258 260 266 268 268 268 268 269
25 113 141 96 77 303 251 206 182 192 270 265 263 275 282 283 289 298 306 309 313 320 324 323 322 322 323 326 331 333 330 325 324 324 323 321 320 319 318 317 316 314 313 313 312 310 308 307 306 305 300 295 293 291 288 286 284 285 288 294 298 296 297 301 301 290 277 273 273 272 275 282 290 297 299 297 289 276 265 261 263 267 270 272 274 273
49 171 177 138 157 231 232 199 193 208 260 279 272 268 266 273 294 310 320 325 329 334 335 333 329 326 323 323 326 329 327 322 320 320 319 317 317 317 317 318 316 314 313 313 312 311 309 306 305 304 302 298 293 288 285 285 285 285 286 289 291 292 291 292 295 294 284 273 271 273 275 279 285 293 300 305 304 296 284 273 268 267 269 272 274 276